Tracking 25734 objects as of 28-May-2022
HD Live streaming from Space Station
objects crossing your sky now

NOAA 17 DEB

Track NOAA 17 DEB now!
10-day predictions


NORAD ID: 48163
Int'l Code: 2002-032D
Perigee: 703.7 km
Apogee: 825.4 km
Inclination: 98.6 °
Period: 100.0 minutes
Semi major axis: 7135 km
RCS: Unknown
Launch date: June 24, 2002
Source: United States (US)
Launch site: AIR FORCE WESTERN TEST RANGE (AFWTR)

Note: This is SATELLITE DEBRIS
aabbcc
Your satellite tracking list
Your tracking list is empty




NASA's NSSDC Master Catalog

Two Line Element Set (TLE):
1 48163U 02032D   22146.10373154  .00009704  00000-0  29420-2 0  9997
2 48163  98.6049  98.7800 0085321 189.3104 170.6506 14.40331538 59491
Source of the keplerian elements: AFSPC